Lac la Martre, Northwest Territories

8:03 AM MDT on April 21, 2018 (GMT -0600)
Lac la Martre

Weather History for CWMT - October, 2013

Change the Weather History Date:

Tuesday, October 22, 2013

  Actual Average Record
Temperature  
Mean Temperature 32 °F -  
Max Temperature 40 °F - - ()
Min Temperature 25 °F - - ()
Degree Days  
Heating Degree Days 32    
Moisture  
Dew Point 32 °F    
Average Humidity 89    
Maximum Humidity 100    
Minimum Humidity 75    
Precipitation  
Precipitation 0.00 in - - ()
Sea Level Pressure  
Sea Level Pressure 30.11 in    
Wind  
Wind Speed 5 mph ()    
Max Wind Speed 9 mph    
Max Gust Speed -    
T = Trace of Precipitation, MM = Missing Value Source: Averaged Metar Reports

Daily Weather History Graph

Daily Weather History Graph

Search for Another Location

Airport or City:

Astronomy

Oct. 22, 2013 Rise Set
Actual Time 8:57 AM MDT 6:07 PM MDT
Civil Twilight 8:09 AM MDT 6:56 PM MDT
Nautical Twilight 7:15 AM MDT 7:49 PM MDT
Astronomical Twilight 6:22 AM MDT 8:42 PM MDT
Moon 7:52 PM MDT (10/22) 1:29 PM MDT (10/22)
Length of Visible Light 10h 46m
Length of Day
9h 09m
Waning Gibbous, 86% of the Moon is Illuminated
Oct 22
Waning Gibbous
Oct 26
Last Quarter
Nov 3
New
Nov 9
First Quarter
Nov 17
Full

Hourly Weather History & Observations

Time (MDT) Temp. Windchill Dew Point Humidity Pressure Visibility Wind Dir Wind Speed Gust Speed Precip Events Conditions
12:00 AM 26 °F - 25 °F 95% 30.01 in - WSW 3.5 mph - -  
12:00 AM 25.5 °F 21.3 °F 25.2 °F 99% 30.01 in - WSW 3.5 mph - N/A   Unknown
1:00 AM 30.0 °F 25.2 °F 29.7 °F 99% 30.02 in - WSW 4.6 mph - N/A   Unknown
2:00 AM 32.0 °F 27.5 °F 31.3 °F 97% 30.02 in - West 4.6 mph - N/A   Unknown
3:00 AM 31.5 °F 25.8 °F 31.1 °F 99% 30.03 in - West 5.8 mph - N/A   Unknown
4:00 AM 30.0 °F 25.2 °F 29.1 °F 96% 30.04 in - West 4.6 mph - N/A   Unknown
5:00 AM 31.5 °F 25.8 °F 31.5 °F 100% 30.04 in - West 5.8 mph - N/A   Unknown
6:00 AM 32 °F - 31 °F 97% 30.05 in - West 5.8 mph - -  
6:00 AM 31.8 °F 26.2 °F 31.5 °F 99% 30.05 in - West 5.8 mph - N/A   Unknown
7:00 AM 31.5 °F 26.8 °F 31.1 °F 99% 30.06 in - West 4.6 mph - N/A   Unknown
8:00 AM 35.1 °F 29.3 °F 33.4 °F 94% 30.07 in - WNW 6.9 mph - N/A   Unknown
9:00 AM 35.1 °F 28.6 °F 32.9 °F 92% 30.09 in - WNW 8.1 mph - N/A   Unknown
10:00 AM 36.7 °F 31.2 °F 33.6 °F 89% 30.11 in - WNW 6.9 mph - N/A   Unknown
11:00 AM 38.3 °F 33.9 °F 34.5 °F 86% 30.12 in - NW 5.8 mph - N/A   Unknown
12:00 PM 40 °F - 35 °F 75% 30.12 in - NW 5.8 mph - -  
12:00 PM 39.7 °F 35.6 °F 34.7 °F 82% 30.12 in - NW 5.8 mph - N/A   Unknown
1:00 PM 40.8 °F 36.2 °F 34.2 °F 77% 30.12 in - NW 6.9 mph - N/A   Unknown
2:00 PM 39.6 °F 34.7 °F 34.3 °F 82% 30.14 in - WNW 6.9 mph - N/A   Unknown
3:00 PM 40.6 °F 34.8 °F 33.8 °F 77% 30.15 in - WNW 9.2 mph - N/A   Unknown
4:00 PM 39.6 °F 35.4 °F 33.8 °F 80% 30.16 in - WNW 5.8 mph - N/A   Unknown
5:00 PM 38.7 °F 34.3 °F 33.8 °F 83% 30.17 in - WNW 5.8 mph - N/A   Unknown
6:00 PM 37 °F - 33 °F 79% 30.19 in - WNW 3.5 mph - -  
6:00 PM 36.9 °F 34.3 °F 32.9 °F 86% 30.19 in - WNW 3.5 mph - N/A   Unknown
7:00 PM 37.4 °F 31.4 °F 33.6 °F 86% 30.19 in - West 8.1 mph - N/A   Unknown
8:00 PM 37.2 °F 31.2 °F 33.1 °F 85% 30.19 in - WNW 8.1 mph - N/A   Unknown
9:00 PM 37.4 °F 32.1 °F 34.3 °F 89% 30.19 in - WNW 6.9 mph - N/A   Unknown
10:00 PM 37.4 °F 32.1 °F 34.2 °F 88% 30.20 in - WNW 6.9 mph - N/A   Unknown
11:00 PM 37.2 °F 33.6 °F 33.1 °F 85% 30.21 in - NW 4.6 mph - N/A   Unknown